[[{"header":{"parameterUnit":"m.s-1","parameterCategory":2,"la1":30.2991,"la2":30.254,"lo1":-89.0895,"lo2":-89.0444,"dx":0.0017,"dy":0.0017,"nx":28,"ny":28,"refTime":"2023-01-27T09:00:00:Z","depth":"0","parameterNumber":2,"parameterNumberName":"U-component_of_CURRENTS"},"data":[0,0,0,0,0,0,0,0,0,0,0,0,0,0,0,0,0,0,0,0,0,0,0,0,0,0,0,0,0,0,0,0,0,0,0,0,0,0,0,0,0,0,0,0,0,0,0,0,0,0,0,0,0,0,0,0,0,0,-0.1484,-0.1484,0,-0.1417,-0.1416,-0.1415,-0.1348,-0.1347,-0.1347,-0.1346,-0.1266,-0.1264,-0.1263,0,0,0,0,0,0,0,0,0,0,0,0,0,-0.153,-0.153,-0.1484,-0.1484,-0.1483,-0.1417,-0.1416,-0.1414,-0.1348,-0.1347,-0.1346,-0.1346,-0.1267,-0.1265,-0.1263,0,0,0,0,0,0,0,0,0,0,0,0,0,-0.1487,-0.1529,-0.1484,-0.1445,-0.1441,-0.1417,-0.1416,-0.1414,-0.1348,-0.1347,-0.1346,-0.1346,-0.1267,-0.1265,-0.1262,-0.1261,0,0,-0.1255,-0.1253,0,0,0,0,0,0,0,0,-0.149,-0.1485,-0.1451,-0.1448,-0.1444,-0.1394,-0.1403,-0.1364,-0.1348,-0.1378,-0.1346,-0.1345,-0.1311,-0.1305,-0.1288,-0.1257,-0.1254,-0.1254,-0.1253,-0.1252,-0.1251,0,0,0,0,0,0,0,-0.1493,-0.1487,-0.1453,-0.1451,-0.1446,-0.1423,-0.1416,-0.1395,-0.1346,-0.1376,-0.1372,-0.1372,-0.1308,-0.129,-0.1285,-0.1253,-0.1254,-0.1252,-0.1251,-0.125,-0.1224,-0.1225,0,0,0,0,0,0,-0.1512,-0.149,-0.1455,-0.1451,-0.1471,-0.1424,-0.1415,-0.1407,-0.1346,-0.1338,-0.1373,-0.1369,-0.1295,-0.1288,-0.1282,-0.1288,-0.1252,-0.1249,-0.1248,-0.1223,-0.1224,-0.1225,0,0,0,0,0,0,-0.1513,-0.1509,-0.1458,-0.1473,-0.1466,-0.1424,-0.1415,-0.1406,-0.1394,-0.1345,-0.1335,-0.1371,-0.1294,-0.1286,-0.1267,-0.1284,-0.1248,-0.1246,-0.1222,-0.1223,-0.1225,-0.1294,0,0,0,0,0,0,-0.1515,-0.151,-0.1512,-0.1475,-0.1466,-0.1471,-0.1416,-0.1405,-0.1397,-0.1392,-0.1341,-0.1332,-0.1293,-0.1271,-0.1265,-0.128,-0.1244,-0.1221,-0.1223,-0.1224,-0.1291,-0.1297,-0.1303,0,0,0,0,0,-0.1517,-0.1546,-0.1512,-0.1508,-0.1469,-0.1473,-0.1467,-0.1431,-0.1398,-0.1412,-0.1361,-0.1334,-0.1277,-0.127,-0.1262,-0.1277,-0.122,-0.1222,-0.1224,-0.1288,-0.1296,-0.1303,0,0,0,0,0,0,-0.1583,-0.1541,-0.1503,-0.1519,-0.1502,-0.1464,-0.1475,-0.1442,-0.1411,-0.14,-0.1341,-0.133,-0.1317,-0.1293,-0.1286,-0.1275,-0.1246,-0.1246,-0.1297,-0.1304,-0.1311,-0.1333,-0.1242,0,0,0,0,0,-0.1593,-0.1589,-0.1553,-0.1565,-0.1559,-0.1512,-0.1507,-0.1483,-0.1452,-0.1436,-0.1398,-0.1356,-0.1318,-0.1309,-0.1277,-0.1276,-0.1249,-0.1283,-0.1289,-0.1294,-0.1308,-0.1273,-0.1277,-0.1231,-0.1231,-0.1231,0,0,-0.1618,-0.1598,-0.1593,-0.1576,-0.1552,-0.1573,-0.1507,-0.1514,-0.1525,-0.1434,-0.1438,-0.1376,-0.1321,-0.131,-0.1304,-0.1294,-0.1295,-0.1297,-0.1302,-0.1313,-0.1276,-0.128,-0.1284,-0.1232,-0.1232,-0.1232,0,0,-0.1693,-0.1651,-0.1679,-0.1671,-0.1653,-0.1627,-0.1635,-0.1601,-0.1579,-0.1569,-0.1497,-0.1446,-0.1413,-0.1364,-0.1336,-0.1363,-0.1324,-0.136,-0.1416,-0.1382,-0.1385,-0.1388,-0.1366,-0.1366,-0.137,-0.137,-0.137,0,-0.1729,-0.175,-0.1694,-0.1729,-0.1733,-0.166,-0.1704,-0.1678,-0.1642,-0.162,-0.1589,-0.149,-0.1437,-0.1401,-0.14,-0.1377,-0.1358,-0.1389,-0.139,-0.1392,-0.1393,-0.137,-0.1369,-0.1373,-0.1373,-0.1373,-0.1372,0,-0.182,-0.1841,-0.1865,-0.1868,-0.1869,-0.1896,-0.1853,-0.1844,-0.1796,-0.1748,-0.1697,-0.1605,-0.1546,-0.1516,-0.1463,-0.1445,-0.1429,-0.1395,-0.1371,-0.1402,-0.1376,-0.1374,-0.1379,-0.1377,-0.1376,-0.1375,0,0,-0.1882,-0.1923,-0.1927,-0.195,-0.1941,-0.1951,-0.1969,-0.195,-0.1939,-0.1876,-0.1853,-0.1756,-0.1676,-0.1639,-0.1556,-0.1517,-0.1495,-0.147,-0.1467,-0.1451,-0.1435,-0.1419,-0.1415,-0.1464,-0.1464,-0.1464,-0.1415,0,-0.1967,-0.2071,-0.2056,-0.2133,-0.2176,-0.2119,-0.2134,-0.2097,-0.2039,-0.1997,-0.1876,-0.1812,-0.1734,-0.1681,-0.1637,-0.1513,-0.1493,-0.1513,-0.1406,-0.1403,-0.1386,-0.1413,-0.1368,-0.132,-0.1412,-0.1412,-0.1412,0,-0.2049,-0.2107,-0.2214,-0.2252,-0.226,-0.2284,-0.2265,-0.2267,-0.2182,-0.2125,-0.2041,-0.1937,-0.1839,-0.1772,-0.1627,-0.1645,-0.1564,-0.148,-0.1475,-0.1437,-0.1384,-0.1302,-0.1312,-0.1254,-0.1408,-0.1408,-0.1409,0,-0.2113,-0.2205,-0.2294,-0.231,-0.2346,-0.236,-0.2356,-0.2299,-0.2267,-0.2189,-0.2134,-0.2028,-0.1932,-0.1833,-0.1654,-0.1642,-0.1505,-0.1463,-0.1387,-0.1385,-0.1314,-0.1306,-0.1256,-0.1404,-0.1404,-0.1404,-0.1404,0,-0.2202,-0.2265,-0.2327,-0.237,-0.2425,-0.2422,-0.2437,-0.2406,-0.2339,-0.2267,-0.2189,-0.2109,-0.194,-0.1825,-0.1699,-0.1537,-0.1545,-0.1409,-0.1374,-0.1338,-0.1333,-0.1252,-0.124,-0.1402,-0.1402,-0.1403,-0.1403,0,-0.225,-0.2308,-0.239,-0.2447,-0.2459,-0.2482,-0.2464,-0.2448,-0.2398,-0.2304,-0.2269,-0.2148,-0.1996,-0.1849,-0.1663,-0.1573,-0.1393,-0.1386,-0.1364,-0.1328,-0.1203,-0.1198,-0.1142,-0.1112,-0.1295,-0.1295,-0.1294,0,-0.2277,-0.2343,-0.2423,-0.2437,-0.2457,-0.2488,-0.2483,-0.2464,-0.241,-0.2303,-0.2233,-0.2109,-0.1965,-0.1744,-0.1578,-0.1401,-0.1354,-0.1281,-0.125,-0.1207,-0.1173,-0.1182,-0.1161,-0.118,-0.1178,-0.1177,-0.1176,0,-0.2291,-0.2326,-0.2374,-0.2387,-0.2401,-0.2396,-0.2374,-0.2361,-0.2289,-0.2214,-0.2047,-0.1949,-0.1804,-0.1594,-0.1443,-0.1334,-0.1248,-0.1253,-0.1199,-0.1086,-0.1098,-0.1049,-0.1216,-0.1166,-0.1167,-0.1168,-0.1168,-0.1169,-0.2233,-0.2245,-0.2252,-0.2247,-0.2264,-0.2166,-0.2076,-0.2051,-0.1924,-0.1709,-0.1821,-0.1612,-0.1552,-0.1322,-0.1244,-0.1106,-0.1147,-0.1029,-0.1028,-0.1042,-0.1014,-0.1179,-0.1096,-0.1097,-0.1098,-0.1098,-0.1099,0,-0.2041,-0.2051,-0.2075,-0.1984,-0.189,-0.1951,-0.1865,-0.1704,-0.1483,-0.1461,-0.1312,-0.1184,-0.1084,-0.1036,-0.0937,-0.087,-0.0865,-0.0849,-0.0834,-0.0824,-0.0943,-0.0938,-0.0828,-0.0828,-0.0828,-0.0828,-0.0828,-0.0828,-0.1915,-0.1827,-0.1827,-0.1558,-0.152,-0.1266,-0.1171,-0.1028,-0.0941,-0.0758,-0.0676,-0.0685,-0.0728,-0.0748,-0.0693,-0.0689,-0.0657,-0.0674,-0.0675,-0.0735,-0.0751,-0.0767,-0.0757,-0.0611,-0.0611,-0.0535,-0.0535,-0.0534]},{"header":{"parameterUnit":"m.s-1","parameterCategory":2,"la1":30.2991,"la2":30.254,"lo1":-89.0895,"lo2":-89.0444,"dx":0.0017,"dy":0.0017,"nx":28,"ny":28,"refTime":"2023-01-27T09:00:00:Z","depth":"0","parameterNumber":3,"parameterNumberName":"V-component_of_CURRENTS"},"data":[0,0,0,0,0,0,0,0,0,0,0,0,0,0,0,0,0,0,0,0,0,0,0,0,0,0,0,0,0,0,0,0,0,0,0,0,0,0,0,0,0,0,0,0,0,0,0,0,0,0,0,0,0,0,0,0,0,0,-0.0175,-0.0175,0,-0.0169,-0.0169,-0.0168,-0.0189,-0.019,-0.019,-0.0191,-0.0165,-0.0163,-0.0162,0,0,0,0,0,0,0,0,0,0,0,0,0,-0.0054,-0.0057,-0.0175,-0.0175,-0.0176,-0.0169,-0.0169,-0.0168,-0.0189,-0.019,-0.0191,-0.0192,-0.0165,-0.0164,-0.0162,0,0,0,0,0,0,0,0,0,0,0,0,0,-0.0081,-0.0058,-0.0175,-0.0187,-0.0188,-0.0169,-0.0169,-0.0168,-0.0188,-0.019,-0.0191,-0.0192,-0.0166,-0.0164,-0.0162,-0.012,0,0,-0.0154,-0.0153,0,0,0,0,0,0,0,0,-0.0079,-0.0085,-0.0185,-0.0186,-0.0188,-0.0184,-0.0116,-0.0152,-0.0188,-0.0185,-0.0191,-0.0193,-0.017,-0.0168,-0.0159,-0.0119,-0.0118,-0.0154,-0.0153,-0.0152,-0.0151,0,0,0,0,0,0,0,-0.0078,-0.0084,-0.017,-0.0185,-0.0187,-0.0141,-0.0148,-0.0122,-0.0167,-0.0185,-0.0188,-0.0191,-0.0171,-0.0162,-0.0159,-0.0118,-0.0154,-0.0152,-0.0151,-0.015,0.0006,0.0009,0,0,0,0,0,0,-0.0092,-0.0084,-0.017,-0.017,-0.0139,-0.0143,-0.015,-0.0181,-0.0168,-0.0169,-0.019,-0.0192,-0.0165,-0.0162,-0.0158,-0.0084,-0.0152,-0.015,-0.0148,0.0004,0.0007,0.001,0,0,0,0,0,0,-0.0089,-0.01,-0.017,-0.0127,-0.0133,-0.0146,-0.0179,-0.018,-0.0177,-0.0173,-0.0172,-0.0187,-0.0166,-0.0161,-0.0132,-0.0085,-0.0149,-0.0147,0.0,0.0005,0.0008,0.0048,0,0,0,0,0,0,-0.0086,-0.01,-0.0122,-0.0129,-0.0136,-0.0162,-0.0178,-0.0179,-0.0178,-0.0181,-0.0169,-0.0168,-0.0167,-0.0135,-0.013,-0.0083,-0.0145,-0.0003,0.0002,0.0007,0.0043,0.0053,0.0062,0,0,0,0,0,-0.0082,-0.0113,-0.0124,-0.0134,-0.017,-0.0162,-0.0161,-0.017,-0.0177,-0.0172,-0.0159,-0.0169,-0.0097,-0.0132,-0.0126,-0.0077,-0.0006,0.0001,0.0007,0.0039,0.0051,0.0061,0,0,0,0,0,0,-0.0079,-0.0118,-0.0131,-0.0175,-0.0169,-0.0167,-0.0167,-0.0166,-0.0151,-0.0153,-0.0148,-0.0145,-0.0094,-0.0087,-0.0125,-0.0011,-0.0046,-0.0038,-0.0023,-0.0012,-0.0003,0.0013,-0.0143,0,0,0,0,0,-0.0088,-0.012,-0.0134,-0.0166,-0.0165,-0.0161,-0.0159,-0.016,-0.0151,-0.0146,-0.0134,-0.0104,-0.0059,-0.0043,-0.0011,0.0041,0.007,0.0085,0.0094,0.0101,0.0122,0.022,0.024,0.003,0.003,0.003,0,0,-0.0101,-0.0121,-0.0144,-0.0166,-0.0163,-0.0147,-0.0163,-0.0158,-0.0129,-0.0143,-0.0101,-0.0078,-0.0038,0.0022,0.0048,0.0029,0.0172,0.0109,0.0115,0.0132,0.0229,0.0249,0.0267,0.0035,0.0034,0.0033,0,0,-0.0121,-0.0153,-0.0175,-0.0158,-0.0153,-0.0141,-0.0139,-0.0128,-0.011,-0.007,-0.0055,0.0002,0.0041,0.0098,0.013,0.0215,0.0215,0.022,0.0278,0.0372,0.039,0.0406,0.0441,0.046,0.0225,0.0226,0.0226,0,-0.0131,-0.0163,-0.0174,-0.0162,-0.0141,-0.0136,-0.0117,-0.0089,-0.0065,-0.0031,-0.0054,0.007,0.0093,0.0208,0.0235,0.0239,0.0263,0.0224,0.0383,0.04,0.0416,0.0448,0.0468,0.0228,0.0228,0.0228,0.0227,0,-0.0151,-0.0159,-0.016,-0.0147,-0.0119,-0.0104,-0.0061,-0.0026,-0.0004,0.0027,0.0126,0.0173,0.0246,0.0276,0.0276,0.0412,0.0381,0.0378,0.0348,0.0439,0.0467,0.0487,0.0232,0.0231,0.023,0.023,0,0,-0.0218,-0.0187,-0.0186,-0.0163,-0.0105,-0.0089,-0.0013,0.0052,0.0102,0.0156,0.0237,0.034,0.0358,0.0399,0.0427,0.0515,0.0633,0.0489,0.0492,0.051,0.0799,0.0756,0.0773,0.0649,0.0653,0.0657,0.0762,0,-0.0229,-0.0229,-0.0181,-0.0135,-0.0126,-0.0045,0.0026,0.0099,0.0156,0.0233,0.0329,0.0398,0.0409,0.0437,0.0538,0.0602,0.0694,0.0602,0.0722,0.0725,0.0666,0.0799,0.0778,0.087,0.0782,0.0786,0.0788,0,-0.0263,-0.0254,-0.0236,-0.0137,-0.0118,-0.0069,0.005,0.0116,0.0246,0.0294,0.0401,0.0449,0.0588,0.0574,0.077,0.0701,0.0765,0.0819,0.0824,0.0791,0.0722,0.0774,0.091,0.0926,0.082,0.0817,0.0815,0,-0.0341,-0.0278,-0.0271,-0.024,-0.0134,-0.0077,-0.0008,0.012,0.0183,0.032,0.0362,0.0532,0.0585,0.0733,0.0822,0.0804,0.1014,0.1,0.1034,0.1028,0.1042,0.103,0.1203,0.1175,0.1174,0.1174,0.1174,0,-0.0383,-0.0364,-0.0312,-0.0301,-0.0249,-0.0141,-0.0058,0.0036,0.0168,0.0255,0.0368,0.0453,0.0627,0.0748,0.0856,0.0996,0.1045,0.1082,0.1083,0.105,0.1038,0.1074,0.1061,0.1178,0.1177,0.1176,0.1176,0,-0.0469,-0.044,-0.042,-0.0329,-0.0294,-0.0264,-0.0119,-0.0042,0.0066,0.0185,0.0223,0.0391,0.0552,0.0709,0.0925,0.1005,0.1187,0.1195,0.1108,0.1098,0.1142,0.1131,0.1304,0.1396,0.1277,0.1277,0.1277,0,-0.0515,-0.053,-0.0477,-0.0455,-0.0409,-0.0343,-0.0264,-0.012,-0.0027,0.0154,0.0219,0.037,0.0533,0.0794,0.0947,0.1145,0.1194,0.1225,0.122,0.1183,0.1172,0.1161,0.1227,0.1241,0.1241,0.124,0.124,0,-0.0588,-0.0584,-0.0569,-0.053,-0.0467,-0.0373,-0.0254,-0.019,0.0009,0.0135,0.0331,0.0463,0.0632,0.0836,0.1016,0.1129,0.1238,0.1224,0.1252,0.1232,0.1173,0.1245,0.1078,0.1238,0.1238,0.1239,0.1239,0.1239,-0.0639,-0.0655,-0.0626,-0.057,-0.049,-0.033,-0.0186,-0.0022,0.018,0.0492,0.0477,0.0747,0.076,0.1017,0.111,0.12,0.124,0.1265,0.1272,0.1278,0.1333,0.1127,0.124,0.124,0.124,0.124,0.124,0,-0.0676,-0.0664,-0.0635,-0.0516,-0.0377,-0.0329,-0.0096,0.0132,0.0459,0.0645,0.0882,0.1035,0.1114,0.1133,0.1169,0.1244,0.1316,0.1288,0.1294,0.1383,0.1263,0.1225,0.126,0.126,0.126,0.126,0.126,0.126,-0.0688,-0.0682,-0.0648,-0.0414,-0.0291,-0.0009,0.017,0.0516,0.0743,0.1151,0.1344,0.1437,0.1312,0.118,0.1189,0.1235,0.1365,0.1325,0.1444,0.1329,0.1328,0.1327,0.1293,0.1341,0.1341,0.1584,0.1585,0.1587]}],[{"header":{"parameterUnit":"m.s-1","parameterCategory":2,"la1":30.2991,"la2":30.254,"lo1":-89.0895,"lo2":-89.0444,"dx":0.0017,"dy":0.0017,"nx":28,"ny":28,"refTime":"2023-01-27T09:00:00:Z","depth":"2","parameterNumber":2,"parameterNumberName":"U-component_of_CURRENTS"},"data":[0,0,0,0,0,0,0,0,0,0,0,0,0,0,0,0,0,0,0,0,0,0,0,0,0,0,0,0,0,0,0,0,0,0,0,0,0,0,0,0,0,0,0,0,0,0,0,0,0,0,0,0,0,0,0,0,0,0,-0.2536,-0.2537,0,-0.2546,-0.2546,-0.2546,-0.2448,-0.2446,-0.2444,-0.2442,-0.2292,-0.2291,-0.2289,0,0,0,0,0,0,0,0,0,0,0,0,0,-0.2432,-0.2434,-0.2536,-0.2537,-0.2538,-0.2546,-0.2546,-0.2546,-0.2449,-0.2446,-0.2443,-0.2441,-0.2293,-0.2291,-0.2289,0,0,0,0,0,0,0,0,0,0,0,0,0,-0.2458,-0.2434,-0.2536,-0.2494,-0.2491,-0.2547,-0.2546,-0.2546,-0.2449,-0.2446,-0.2443,-0.2439,-0.2294,-0.2291,-0.2288,-0.2338,0,0,-0.228,-0.2278,0,0,0,0,0,0,0,0,-0.2457,-0.2461,-0.25,-0.2497,-0.2493,-0.2497,-0.2455,-0.247,-0.245,-0.246,-0.2442,-0.2438,-0.2352,-0.2344,-0.2349,-0.2331,-0.2325,-0.2279,-0.2278,-0.2276,-0.2276,0,0,0,0,0,0,0,-0.2455,-0.2461,-0.2535,-0.2501,-0.2497,-0.2474,-0.2474,-0.2457,-0.2418,-0.2459,-0.2453,-0.2463,-0.2348,-0.2352,-0.2344,-0.2322,-0.2279,-0.2277,-0.2275,-0.2274,-0.2181,-0.218,0,0,0,0,0,0,-0.2469,-0.246,-0.2535,-0.2536,-0.2472,-0.2479,-0.2478,-0.2495,-0.2421,-0.2409,-0.2466,-0.2459,-0.2358,-0.2347,-0.2338,-0.2256,-0.2276,-0.2274,-0.2272,-0.2182,-0.2181,-0.218,0,0,0,0,0,0,-0.2466,-0.2476,-0.2535,-0.2501,-0.2507,-0.2485,-0.2504,-0.2497,-0.2469,-0.2429,-0.2412,-0.2442,-0.2355,-0.2342,-0.2286,-0.2254,-0.2273,-0.227,-0.2183,-0.2181,-0.218,-0.2178,0,0,0,0,0,0,-0.2463,-0.2475,-0.2481,-0.2503,-0.251,-0.255,-0.2508,-0.25,-0.2485,-0.2474,-0.2404,-0.2389,-0.2352,-0.2291,-0.2283,-0.225,-0.2268,-0.2184,-0.2182,-0.2181,-0.2179,-0.2177,-0.2175,0,0,0,0,0,-0.246,-0.2487,-0.2482,-0.249,-0.2523,-0.2551,-0.2552,-0.2521,-0.2487,-0.2481,-0.242,-0.2389,-0.2275,-0.2289,-0.228,-0.2245,-0.2184,-0.2183,-0.2181,-0.218,-0.2177,-0.2175,0,0,0,0,0,0,-0.2446,-0.2481,-0.2475,-0.2511,-0.2522,-0.2536,-0.2535,-0.2518,-0.2473,-0.2444,-0.2391,-0.2373,-0.2306,-0.2288,-0.2304,-0.2214,-0.2221,-0.2218,-0.2223,-0.222,-0.2218,-0.2238,-0.2265,0,0,0,0,0,-0.2452,-0.2474,-0.2502,-0.2527,-0.2534,-0.2532,-0.2535,-0.2516,-0.2491,-0.2467,-0.2416,-0.2357,-0.2304,-0.227,-0.2228,-0.2196,-0.2189,-0.2164,-0.2162,-0.2161,-0.2171,-0.2154,-0.2152,-0.2174,-0.2174,-0.2174,0,0,-0.2451,-0.2477,-0.2485,-0.2524,-0.2528,-0.2545,-0.2522,-0.2526,-0.2517,-0.246,-0.2408,-0.235,-0.2294,-0.2239,-0.2208,-0.2211,-0.2145,-0.2158,-0.2157,-0.2169,-0.2152,-0.215,-0.2148,-0.2173,-0.2173,-0.2173,0,0,-0.2478,-0.2486,-0.2515,-0.2525,-0.2542,-0.2543,-0.2541,-0.2538,-0.2505,-0.2472,-0.2409,-0.234,-0.2276,-0.2223,-0.2191,-0.2163,-0.2136,-0.2133,-0.2137,-0.212,-0.2118,-0.2117,-0.2085,-0.2081,-0.2132,-0.2132,-0.2132,0,-0.2475,-0.2521,-0.2525,-0.2555,-0.256,-0.2541,-0.256,-0.2542,-0.251,-0.2482,-0.2446,-0.2329,-0.2273,-0.2205,-0.2175,-0.2158,-0.214,-0.2149,-0.2118,-0.2117,-0.2116,-0.2084,-0.208,-0.2131,-0.2131,-0.2131,-0.2131,0,-0.2527,-0.2551,-0.2568,-0.2594,-0.2596,-0.261,-0.2594,-0.2567,-0.2521,-0.2493,-0.2409,-0.2335,-0.2267,-0.2223,-0.2183,-0.2131,-0.2116,-0.2119,-0.2129,-0.2114,-0.208,-0.2076,-0.2131,-0.2131,-0.2131,-0.2131,0,0,-0.2536,-0.2599,-0.2595,-0.2617,-0.2613,-0.2629,-0.2601,-0.2584,-0.2565,-0.249,-0.2455,-0.2337,-0.2287,-0.2249,-0.2183,-0.2148,-0.21,-0.2122,-0.2121,-0.2098,-0.2046,-0.1978,-0.1967,-0.2095,-0.2095,-0.2094,-0.202,0,-0.2569,-0.2648,-0.2651,-0.2683,-0.2714,-0.2677,-0.2663,-0.2626,-0.2575,-0.2532,-0.2433,-0.2375,-0.2302,-0.2259,-0.2208,-0.2134,-0.2091,-0.212,-0.2059,-0.2057,-0.2005,-0.1961,-0.1769,-0.1682,-0.2015,-0.2015,-0.2014,0,-0.2593,-0.2652,-0.2713,-0.2744,-0.2749,-0.2751,-0.2718,-0.2707,-0.2633,-0.2588,-0.2504,-0.2435,-0.2343,-0.23,-0.2174,-0.2193,-0.2118,-0.2061,-0.2057,-0.1997,-0.1981,-0.1754,-0.1661,-0.2007,-0.2007,-0.2008,-0.2008,0,-0.2606,-0.2671,-0.2728,-0.2739,-0.2778,-0.277,-0.2766,-0.271,-0.2694,-0.2624,-0.2589,-0.2486,-0.2418,-0.2331,-0.2181,-0.2184,-0.2051,-0.2055,-0.1923,-0.1917,-0.1745,-0.1725,-0.198,-0.198,-0.198,-0.198,-0.198,0,-0.2647,-0.2675,-0.2741,-0.2779,-0.2815,-0.2806,-0.2812,-0.2788,-0.2741,-0.2698,-0.262,-0.2555,-0.2421,-0.2313,-0.2205,-0.2033,-0.2072,-0.1913,-0.1891,-0.1736,-0.1717,-0.2001,-0.2005,-0.1977,-0.1978,-0.1978,-0.1979,0,-0.2653,-0.2705,-0.2764,-0.282,-0.2832,-0.2848,-0.2854,-0.2841,-0.2805,-0.2745,-0.2721,-0.2602,-0.2453,-0.2313,-0.2155,-0.2048,-0.1917,-0.1848,-0.1662,-0.162,-0.1792,-0.1796,-0.1712,-0.1709,-0.1706,-0.1704,-0.1702,0,-0.2673,-0.2711,-0.2791,-0.281,-0.2836,-0.2863,-0.2861,-0.2862,-0.2832,-0.2749,-0.2702,-0.2568,-0.2385,-0.2144,-0.1924,-0.1718,-0.1828,-0.1495,-0.1474,-0.1775,-0.1763,-0.1772,-0.1779,-0.1232,-0.1227,-0.1222,-0.1218,0,-0.2677,-0.2694,-0.2744,-0.2789,-0.2805,-0.2826,-0.2818,-0.2795,-0.275,-0.2682,-0.2514,-0.2373,-0.2127,-0.1782,-0.1562,-0.1449,-0.1519,-0.14,-0.1741,-0.1346,-0.1321,-0.1311,-0.1334,-0.1178,-0.1182,-0.1185,-0.1187,-0.1189,-0.2618,-0.2641,-0.2671,-0.2696,-0.2718,-0.2658,-0.259,-0.2557,-0.2445,-0.2148,-0.2189,-0.1834,-0.1729,-0.1202,-0.1138,-0.1101,-0.1199,-0.1146,-0.116,-0.1179,-0.1153,-0.1127,-0.0941,-0.0944,-0.0946,-0.0948,-0.095,0,-0.249,-0.2513,-0.2554,-0.2534,-0.2475,-0.2534,-0.245,-0.2285,-0.2051,-0.179,-0.1523,-0.1127,-0.0866,-0.0859,-0.0687,-0.0681,-0.0692,-0.0727,-0.0718,-0.0755,-0.0788,-0.0746,-0.0424,-0.0423,-0.0423,-0.0422,0,0,-0.2413,-0.2381,-0.2406,-0.2246,-0.2227,-0.2045,-0.1936,-0.1714,-0.1489,-0.1033,-0.075,-0.0488,-0.0636,-0.0389,-0.0426,-0.0407,-0.0578,-0.0398,-0.0797,-0.0808,-0.0841,-0.0989,-0.0958,0,0,0,0,0]},{"header":{"parameterUnit":"m.s-1","parameterCategory":2,"la1":30.2991,"la2":30.254,"lo1":-89.0895,"lo2":-89.0444,"dx":0.0017,"dy":0.0017,"nx":28,"ny":28,"refTime":"2023-01-27T09:00:00:Z","depth":"2","parameterNumber":3,"parameterNumberName":"V-component_of_CURRENTS"},"data":[0,0,0,0,0,0,0,0,0,0,0,0,0,0,0,0,0,0,0,0,0,0,0,0,0,0,0,0,0,0,0,0,0,0,0,0,0,0,0,0,0,0,0,0,0,0,0,0,0,0,0,0,0,0,0,0,0,0,-0.0362,-0.0363,0,-0.0403,-0.0404,-0.0404,-0.0444,-0.0445,-0.0446,-0.0447,-0.0411,-0.0409,-0.0407,0,0,0,0,0,0,0,0,0,0,0,0,0,-0.0213,-0.0216,-0.0362,-0.0363,-0.0364,-0.0403,-0.0404,-0.0404,-0.0444,-0.0445,-0.0446,-0.0447,-0.0411,-0.0409,-0.0407,0,0,0,0,0,0,0,0,0,0,0,0,0,-0.0265,-0.0217,-0.0362,-0.0392,-0.0395,-0.0403,-0.0404,-0.0404,-0.0444,-0.0445,-0.0446,-0.0448,-0.0412,-0.0409,-0.0407,-0.0363,0,0,-0.0399,-0.0397,0,0,0,0,0,0,0,0,-0.0262,-0.027,-0.0386,-0.039,-0.0393,-0.0424,-0.0338,-0.0388,-0.0443,-0.0421,-0.0447,-0.0448,-0.0409,-0.0407,-0.0407,-0.0361,-0.036,-0.0398,-0.0397,-0.0395,-0.0395,0,0,0,0,0,0,0,-0.0258,-0.0267,-0.0374,-0.0387,-0.0392,-0.0367,-0.0377,-0.0347,-0.0402,-0.0423,-0.0427,-0.0438,-0.0411,-0.041,-0.0406,-0.0359,-0.0398,-0.0396,-0.0394,-0.0393,-0.037,-0.0371,0,0,0,0,0,0,-0.0266,-0.0265,-0.0373,-0.0376,-0.0334,-0.037,-0.038,-0.0409,-0.0405,-0.0407,-0.0436,-0.0439,-0.0414,-0.041,-0.0405,-0.043,-0.0396,-0.0393,-0.0391,-0.0369,-0.037,-0.0371,0,0,0,0,0,0,-0.0263,-0.0276,-0.0371,-0.0323,-0.0334,-0.0372,-0.0404,-0.0409,-0.0428,-0.0417,-0.0417,-0.0452,-0.0415,-0.0409,-0.042,-0.0426,-0.0392,-0.0389,-0.0368,-0.0369,-0.0371,-0.0429,0,0,0,0,0,0,-0.0259,-0.0275,-0.0295,-0.0324,-0.0337,-0.0395,-0.0403,-0.0409,-0.0433,-0.0438,-0.0429,-0.0426,-0.0415,-0.0424,-0.0417,-0.0421,-0.0387,-0.0367,-0.0368,-0.037,-0.0426,-0.0433,-0.0438,0,0,0,0,0,-0.0253,-0.0276,-0.0296,-0.0309,-0.0366,-0.0396,-0.04,-0.0426,-0.0433,-0.0446,-0.0455,-0.0428,-0.0431,-0.0423,-0.0414,-0.0418,-0.0366,-0.0368,-0.037,-0.0423,-0.0431,-0.0438,0,0,0,0,0,0,-0.0226,-0.0283,-0.0306,-0.0348,-0.0379,-0.0405,-0.0418,-0.0431,-0.0446,-0.0454,-0.0439,-0.0438,-0.045,-0.0426,-0.0418,-0.0419,-0.0392,-0.0393,-0.0436,-0.0443,-0.0449,-0.0432,-0.0385,0,0,0,0,0,-0.0229,-0.0265,-0.031,-0.0347,-0.0363,-0.039,-0.0404,-0.0426,-0.0445,-0.0454,-0.0453,-0.045,-0.0446,-0.0442,-0.0435,-0.0427,-0.0373,-0.0425,-0.0431,-0.0436,-0.0419,-0.0352,-0.035,-0.0379,-0.0379,-0.0379,0,0,-0.0235,-0.0267,-0.0292,-0.0343,-0.0367,-0.04,-0.0402,-0.0434,-0.0458,-0.0443,-0.0472,-0.047,-0.0451,-0.0461,-0.0461,-0.0444,-0.0405,-0.0439,-0.0444,-0.0423,-0.0354,-0.0351,-0.0348,-0.038,-0.038,-0.038,0,0,-0.0261,-0.0288,-0.033,-0.0352,-0.0396,-0.041,-0.0424,-0.046,-0.0474,-0.0499,-0.05,-0.0503,-0.0499,-0.049,-0.0481,-0.0508,-0.0442,-0.0512,-0.0521,-0.0458,-0.0454,-0.045,-0.0391,-0.0381,-0.051,-0.0511,-0.0511,0,-0.0268,-0.0331,-0.0344,-0.038,-0.0401,-0.0419,-0.0459,-0.0468,-0.0506,-0.0508,-0.0519,-0.0513,-0.0506,-0.0495,-0.0522,-0.0517,-0.0473,-0.0496,-0.0463,-0.0458,-0.0452,-0.0393,-0.0381,-0.0514,-0.0513,-0.0513,-0.0513,0,-0.0329,-0.0373,-0.0393,-0.045,-0.0462,-0.0501,-0.0516,-0.0531,-0.0544,-0.0552,-0.0554,-0.0547,-0.0535,-0.0543,-0.0544,-0.0512,-0.0492,-0.0481,-0.044,-0.0452,-0.039,-0.0377,-0.0518,-0.0517,-0.0516,-0.0515,0,0,-0.0385,-0.0431,-0.0446,-0.0471,-0.0504,-0.0523,-0.0542,-0.0565,-0.0564,-0.0584,-0.0572,-0.0584,-0.0567,-0.0556,-0.0547,-0.0503,-0.0448,-0.0485,-0.048,-0.0418,-0.0307,-0.029,-0.0273,-0.0431,-0.0429,-0.0427,-0.0282,0,-0.0446,-0.0525,-0.0519,-0.0578,-0.0622,-0.0603,-0.0609,-0.0614,-0.0609,-0.0596,-0.0571,-0.0558,-0.0573,-0.0561,-0.0525,-0.0463,-0.0414,-0.0488,-0.031,-0.0304,-0.028,-0.0257,-0.0346,-0.0223,-0.0269,-0.0267,-0.0265,0,-0.0533,-0.0569,-0.0643,-0.0645,-0.0655,-0.0671,-0.0663,-0.0664,-0.0629,-0.0617,-0.0589,-0.0557,-0.0509,-0.0509,-0.0392,-0.044,-0.0378,-0.0327,-0.032,-0.0266,-0.0261,-0.0215,-0.0196,-0.0242,-0.0244,-0.0245,-0.0247,0,-0.0607,-0.0654,-0.0711,-0.0722,-0.0726,-0.0727,-0.0716,-0.0686,-0.0664,-0.0617,-0.0582,-0.0528,-0.0473,-0.0397,-0.0312,-0.0341,-0.0162,-0.0182,-0.0102,-0.01,-0.0118,-0.0121,-0.0076,-0.0077,-0.0077,-0.0077,-0.0078,0,-0.0702,-0.0741,-0.0748,-0.0784,-0.0811,-0.0776,-0.0769,-0.0753,-0.0686,-0.0643,-0.0591,-0.053,-0.0438,-0.0334,-0.0277,-0.0142,-0.0126,-0.0082,-0.0052,-0.0145,-0.0152,-0.0124,-0.0131,-0.0072,-0.0073,-0.0074,-0.0075,0,-0.0805,-0.0812,-0.0867,-0.0868,-0.086,-0.0883,-0.0812,-0.0786,-0.0719,-0.0649,-0.0624,-0.0508,-0.0369,-0.0267,-0.0116,-0.0076,0.0037,0.0081,-0.0037,-0.0024,0.0047,0.0034,0.0193,0.0195,0.0197,0.0198,0.0199,0,-0.0876,-0.0923,-0.0941,-0.0956,-0.0962,-0.0954,-0.0929,-0.0843,-0.0788,-0.0634,-0.0593,-0.0435,-0.0335,-0.0109,-0.0032,0.0098,0.0122,0.0136,0.0065,0.0066,0.0079,0.0064,0.0049,0.0012,0.0012,0.0012,0.0011,0,-0.1004,-0.1006,-0.1047,-0.1072,-0.1066,-0.1021,-0.0964,-0.092,-0.0781,-0.0705,-0.0555,-0.0459,-0.026,-0.0158,0.0012,0.0078,0.01,0.0135,0.0198,-0.0049,-0.0093,-0.0085,-0.0095,0.0008,0.0008,0.0009,0.0009,0.0009,-0.1093,-0.1149,-0.1178,-0.1189,-0.1156,-0.1071,-0.1016,-0.0915,-0.0815,-0.066,-0.0584,-0.0445,-0.0345,-0.015,-0.0011,0.0123,0.01,0.0127,0.0123,0.0121,0.0068,0.0029,0.0143,0.0144,0.0145,0.0146,0.0147,0,-0.1218,-0.1243,-0.1272,-0.1259,-0.1201,-0.1146,-0.1012,-0.0919,-0.0786,-0.0684,-0.0573,-0.0456,-0.0362,-0.0187,-0.004,0.0063,0.0041,0.0146,0.0057,0.0057,0.0057,-0.0002,0.0057,0.0058,0.0059,0.006,0,0,-0.1289,-0.1357,-0.135,-0.1288,-0.1238,-0.1099,-0.1003,-0.0861,-0.0743,-0.0613,-0.0537,-0.0552,-0.0384,-0.0284,-0.0165,-0.0038,0.001,0.0,0.0041,-0.0084,-0.0082,-0.0007,-0.0104,0,0,0,0,0]}],[{"header":{"parameterUnit":"m.s-1","parameterCategory":2,"la1":30.2991,"la2":30.254,"lo1":-89.0895,"lo2":-89.0444,"dx":0.0017,"dy":0.0017,"nx":28,"ny":28,"refTime":"2023-01-27T09:00:00:Z","depth":"4","parameterNumber":2,"parameterNumberName":"U-component_of_CURRENTS"},"data":[0,0,0,0,0,0,0,0,0,0,0,0,0,0,0,0,0,0,0,0,0,0,0,0,0,0,0,0,0,0,0,0,0,0,0,0,0,0,0,0,0,0,0,0,0,0,0,0,0,0,0,0,0,0,0,0,0,0,-0.0728,-0.073,0,-0.0851,-0.0852,-0.0853,-0.0874,-0.0873,-0.0872,-0.0872,-0.1002,-0.1006,-0.101,0,0,0,0,0,0,0,0,0,0,0,0,0,-0.0682,-0.0682,-0.0728,-0.073,-0.0732,-0.0851,-0.0852,-0.0854,-0.0874,-0.0873,-0.0872,-0.0871,-0.1001,-0.1005,-0.101,0,0,0,0,0,0,0,0,0,0,0,0,0,-0.0739,-0.0681,-0.0728,-0.0759,-0.0763,-0.0851,-0.0852,-0.0854,-0.0874,-0.0873,-0.0872,-0.0871,-0.0999,-0.1005,-0.1011,-0.1071,0,0,-0.103,-0.1033,0,0,0,0,0,0,0,0,-0.0736,-0.074,-0.0753,-0.0757,-0.0762,-0.0849,-0.0884,-0.0928,-0.0874,-0.0828,-0.0872,-0.0871,-0.0955,-0.0965,-0.0985,-0.1077,-0.1082,-0.103,-0.1034,-0.1037,-0.1039,0,0,0,0,0,0,0,-0.0732,-0.0736,-0.0773,-0.0755,-0.0761,-0.0826,-0.0831,-0.0893,-0.0893,-0.0832,-0.0835,-0.0855,-0.0957,-0.0978,-0.0988,-0.1084,-0.103,-0.1036,-0.104,-0.1042,-0.1205,-0.1206,0,0,0,0,0,0,-0.0716,-0.0732,-0.0769,-0.0777,-0.0751,-0.0828,-0.0833,-0.0819,-0.0892,-0.0904,-0.0856,-0.0856,-0.0968,-0.0981,-0.0993,-0.1112,-0.1037,-0.1043,-0.1046,-0.1204,-0.1205,-0.1206,0,0,0,0,0,0,-0.0714,-0.0717,-0.0764,-0.0763,-0.0773,-0.0828,-0.0814,-0.0822,-0.0859,-0.0911,-0.0921,-0.0885,-0.0968,-0.0984,-0.106,-0.1115,-0.1045,-0.1051,-0.1204,-0.1205,-0.1206,-0.1322,0,0,0,0,0,0,-0.0712,-0.0714,-0.0707,-0.076,-0.0773,-0.0818,-0.0816,-0.0826,-0.0874,-0.0875,-0.094,-0.095,-0.0968,-0.1051,-0.1066,-0.1122,-0.1056,-0.1203,-0.1204,-0.1205,-0.1318,-0.1327,-0.1335,0,0,0,0,0,-0.0709,-0.0728,-0.0705,-0.0711,-0.0756,-0.0819,-0.0832,-0.0867,-0.0877,-0.0895,-0.0942,-0.0949,-0.1067,-0.1058,-0.1075,-0.1135,-0.1202,-0.1204,-0.1205,-0.1314,-0.1325,-0.1335,0,0,0,0,0,0,-0.0721,-0.0733,-0.0709,-0.073,-0.0762,-0.0824,-0.0864,-0.0882,-0.0936,-0.0948,-0.0981,-0.0996,-0.1069,-0.108,-0.1068,-0.1174,-0.1127,-0.1132,-0.1203,-0.1215,-0.1223,-0.1216,-0.1061,0,0,0,0,0,-0.0711,-0.0714,-0.0737,-0.0754,-0.0772,-0.0815,-0.085,-0.0873,-0.0928,-0.095,-0.1004,-0.1048,-0.1088,-0.1133,-0.1162,-0.1253,-0.1256,-0.1288,-0.1297,-0.1305,-0.1306,-0.1362,-0.1378,-0.121,-0.121,-0.121,0,0,-0.0707,-0.0731,-0.0721,-0.0756,-0.0787,-0.0801,-0.0833,-0.0898,-0.0919,-0.096,-0.1033,-0.1084,-0.1109,-0.1191,-0.1225,-0.1217,-0.1353,-0.1307,-0.1315,-0.131,-0.1366,-0.1382,-0.1397,-0.1211,-0.1211,-0.1211,0,0,-0.0738,-0.0734,-0.0744,-0.0774,-0.083,-0.0835,-0.0852,-0.0925,-0.0965,-0.104,-0.1065,-0.1147,-0.1226,-0.1266,-0.1287,-0.1361,-0.1382,-0.1378,-0.1454,-0.151,-0.1526,-0.1539,-0.1571,-0.1586,-0.1404,-0.1404,-0.1404,0,-0.0738,-0.0744,-0.0764,-0.0801,-0.0832,-0.0841,-0.0869,-0.0898,-0.0991,-0.1036,-0.1064,-0.12,-0.1248,-0.1331,-0.1379,-0.1386,-0.1421,-0.1424,-0.1527,-0.154,-0.1551,-0.1581,-0.1596,-0.141,-0.1409,-0.1409,-0.1408,0,-0.0753,-0.0777,-0.0808,-0.0809,-0.0844,-0.0885,-0.0913,-0.0956,-0.1005,-0.1042,-0.1162,-0.1257,-0.1346,-0.138,-0.1425,-0.1541,-0.154,-0.152,-0.1511,-0.1576,-0.1602,-0.1616,-0.1418,-0.1416,-0.1414,-0.1413,0,0,-0.0711,-0.079,-0.0801,-0.0816,-0.0864,-0.0887,-0.0925,-0.096,-0.0981,-0.1097,-0.1175,-0.131,-0.1403,-0.1434,-0.152,-0.1602,-0.1748,-0.1639,-0.164,-0.1689,-0.1887,-0.154,-0.1521,-0.1779,-0.1782,-0.1785,-0.1875,0,-0.0712,-0.0764,-0.0817,-0.0845,-0.0861,-0.0908,-0.0944,-0.0986,-0.1027,-0.1096,-0.1219,-0.1309,-0.1405,-0.1503,-0.1611,-0.1718,-0.179,-0.1724,-0.1798,-0.1799,-0.1498,-0.1526,-0.1793,-0.1886,-0.1889,-0.1891,-0.1893,0,-0.0696,-0.0738,-0.0787,-0.0868,-0.0886,-0.0899,-0.0943,-0.0993,-0.1064,-0.1145,-0.1266,-0.1328,-0.1523,-0.156,-0.1797,-0.1773,-0.1848,-0.19,-0.1904,-0.1543,-0.1475,-0.1801,-0.1918,-0.1916,-0.1914,-0.1912,-0.1911,0,-0.0631,-0.0715,-0.0753,-0.0779,-0.0862,-0.0909,-0.094,-0.1001,-0.1056,-0.1173,-0.121,-0.1415,-0.1539,-0.1689,-0.1752,-0.1857,-0.1891,-0.2036,-0.1767,-0.1744,-0.1987,-0.1972,-0.2132,-0.2132,-0.2132,-0.2132,-0.2132,0,-0.0608,-0.0635,-0.0722,-0.0745,-0.0786,-0.0882,-0.0918,-0.0996,-0.1096,-0.1118,-0.1258,-0.1264,-0.1585,-0.1591,-0.1723,-0.1704,-0.1864,-0.1764,-0.1734,-0.2031,-0.202,-0.1998,-0.1981,-0.2135,-0.2134,-0.2134,-0.2133,0,-0.0543,-0.0604,-0.0647,-0.074,-0.0767,-0.0801,-0.0892,-0.0909,-0.1031,-0.1063,-0.1114,-0.1235,-0.1291,-0.1383,-0.1566,-0.1608,-0.1628,-0.1531,-0.1739,-0.1722,-0.1515,-0.1504,-0.1475,-0.1464,-0.1454,-0.1445,-0.1438,0,-0.0525,-0.0542,-0.0621,-0.063,-0.0676,-0.0721,-0.0754,-0.089,-0.0905,-0.0958,-0.0961,-0.0989,-0.1036,-0.1001,-0.1154,-0.127,-0.125,-0.1289,-0.1556,-0.1468,-0.1446,-0.145,-0.1451,-0.1423,-0.142,-0.1417,-0.1415,0,-0.0489,-0.0516,-0.0544,-0.0558,-0.0586,-0.0605,-0.0649,-0.0656,-0.0782,-0.0853,-0.0788,-0.0775,-0.0752,-0.0878,-0.0824,-0.0921,-0.133,-0.1192,-0.1223,-0.1476,-0.1404,-0.1392,-0.1406,-0.138,-0.1385,-0.1389,-0.1391,0,-0.0465,-0.0447,-0.0479,-0.0483,-0.0501,-0.0501,-0.0525,-0.0528,-0.0582,-0.0671,-0.0588,-0.0593,-0.0677,-0.067,-0.0613,-0.0651,-0.0848,-0.0987,-0.1035,-0.1074,-0.0889,-0.0736,-0.0467,0,0,0,0,0,-0.0454,-0.0407,-0.0395,-0.0396,-0.0399,-0.0417,-0.047,-0.0501,-0.0567,-0.0507,-0.0579,-0.0509,-0.0497,-0.0479,-0.0484,-0.0535,-0.0866,-0.0541,-0.1055,-0.1189,-0.1229,-0.1042,0,0,0,0,0,0,-0.043,-0.0409,-0.0378,-0.033,-0.03,-0.0312,-0.0344,-0.0387,-0.0367,-0.0424,-0.0409,-0.0465,-0.0455,-0.0472,-0.0457,-0.0469,-0.0789,-0.0563,-0.0562,-0.1167,-0.1203,-0.1235,-0.1057,0,0,0,0,0]},{"header":{"parameterUnit":"m.s-1","parameterCategory":2,"la1":30.2991,"la2":30.254,"lo1":-89.0895,"lo2":-89.0444,"dx":0.0017,"dy":0.0017,"nx":28,"ny":28,"refTime":"2023-01-27T09:00:00:Z","depth":"4","parameterNumber":3,"parameterNumberName":"V-component_of_CURRENTS"},"data":[0,0,0,0,0,0,0,0,0,0,0,0,0,0,0,0,0,0,0,0,0,0,0,0,0,0,0,0,0,0,0,0,0,0,0,0,0,0,0,0,0,0,0,0,0,0,0,0,0,0,0,0,0,0,0,0,0,0,-0.0392,-0.0392,0,-0.0431,-0.0432,-0.0432,-0.0433,-0.0433,-0.0432,-0.0432,-0.0449,-0.045,-0.0451,0,0,0,0,0,0,0,0,0,0,0,0,0,-0.0326,-0.0327,-0.0392,-0.0392,-0.0393,-0.0431,-0.0432,-0.0432,-0.0434,-0.0433,-0.0432,-0.0432,-0.0449,-0.045,-0.0451,0,0,0,0,0,0,0,0,0,0,0,0,0,-0.0359,-0.0328,-0.0392,-0.0397,-0.0398,-0.0431,-0.0432,-0.0432,-0.0434,-0.0433,-0.0432,-0.0431,-0.0449,-0.045,-0.0452,-0.0476,0,0,-0.0456,-0.0457,0,0,0,0,0,0,0,0,-0.0358,-0.0362,-0.0396,-0.0397,-0.0398,-0.0426,-0.0415,-0.0446,-0.0434,-0.0421,-0.0432,-0.0431,-0.044,-0.0442,-0.0452,-0.0477,-0.0478,-0.0456,-0.0457,-0.0458,-0.0458,0,0,0,0,0,0,0,-0.0355,-0.036,-0.0408,-0.0397,-0.0398,-0.0401,-0.0405,-0.0421,-0.0434,-0.0422,-0.0422,-0.0426,-0.044,-0.0451,-0.0453,-0.0478,-0.0456,-0.0457,-0.0458,-0.0459,-0.0568,-0.057,0,0,0,0,0,0,-0.035,-0.0358,-0.0407,-0.0409,-0.0375,-0.0403,-0.0407,-0.0418,-0.0435,-0.0436,-0.0426,-0.0426,-0.0449,-0.0451,-0.0453,-0.0526,-0.0458,-0.0459,-0.046,-0.0566,-0.0568,-0.057,0,0,0,0,0,0,-0.0349,-0.0354,-0.0405,-0.0383,-0.039,-0.0405,-0.0417,-0.042,-0.0434,-0.0438,-0.0439,-0.0438,-0.0448,-0.0451,-0.0484,-0.0525,-0.046,-0.0461,-0.0563,-0.0566,-0.0569,-0.0645,0,0,0,0,0,0,-0.0347,-0.0354,-0.0369,-0.0383,-0.0391,-0.0432,-0.0418,-0.0421,-0.0437,-0.0436,-0.0449,-0.0449,-0.0448,-0.0482,-0.0485,-0.0526,-0.0462,-0.0561,-0.0565,-0.0568,-0.064,-0.065,-0.0659,0,0,0,0,0,-0.0344,-0.0369,-0.0369,-0.0375,-0.0408,-0.0433,-0.0438,-0.0445,-0.0438,-0.0453,-0.0466,-0.0449,-0.0508,-0.0485,-0.0488,-0.053,-0.0559,-0.0563,-0.0568,-0.0635,-0.0648,-0.0658,0,0,0,0,0,0,-0.0354,-0.0372,-0.0372,-0.0402,-0.0418,-0.0433,-0.0452,-0.0451,-0.0474,-0.0478,-0.0473,-0.0476,-0.0533,-0.0516,-0.049,-0.0574,-0.0532,-0.0538,-0.0582,-0.0594,-0.0603,-0.0604,-0.0463,0,0,0,0,0,-0.0361,-0.0379,-0.0396,-0.0419,-0.0431,-0.0442,-0.0455,-0.0461,-0.0478,-0.0487,-0.0498,-0.0517,-0.0555,-0.0559,-0.0593,-0.0623,-0.0595,-0.0653,-0.0663,-0.0671,-0.0675,-0.0679,-0.0689,-0.0585,-0.0585,-0.0585,0,0,-0.0373,-0.0382,-0.0395,-0.0421,-0.0436,-0.0476,-0.0448,-0.0476,-0.0512,-0.0487,-0.0543,-0.0562,-0.0577,-0.0631,-0.0651,-0.0616,-0.0684,-0.0677,-0.0684,-0.0683,-0.0685,-0.0695,-0.0704,-0.0588,-0.0588,-0.0587,0,0,-0.0402,-0.0413,-0.044,-0.0459,-0.0484,-0.0502,-0.0511,-0.0538,-0.0552,-0.0599,-0.0608,-0.0641,-0.0681,-0.0704,-0.0719,-0.0796,-0.0751,-0.0809,-0.0838,-0.0843,-0.0851,-0.0857,-0.0818,-0.0821,-0.0793,-0.0793,-0.0793,0,-0.0408,-0.0448,-0.0452,-0.0486,-0.0511,-0.0518,-0.0562,-0.0589,-0.0623,-0.064,-0.0628,-0.0713,-0.0721,-0.0788,-0.0817,-0.0818,-0.0795,-0.0792,-0.0853,-0.086,-0.0865,-0.0824,-0.0826,-0.0797,-0.0796,-0.0796,-0.0796,0,-0.0462,-0.0496,-0.0516,-0.0564,-0.0597,-0.0631,-0.0669,-0.0707,-0.0723,-0.0737,-0.0804,-0.082,-0.0862,-0.0876,-0.0868,-0.0926,-0.0888,-0.088,-0.0819,-0.088,-0.0832,-0.0833,-0.0803,-0.0801,-0.08,-0.0799,0,0,-0.046,-0.0535,-0.0541,-0.0576,-0.0637,-0.0668,-0.0743,-0.0799,-0.0831,-0.0871,-0.0918,-0.0979,-0.0972,-0.0989,-0.0989,-0.0979,-0.0993,-0.0942,-0.0941,-0.0894,-0.0971,-0.089,-0.0882,-0.0995,-0.0996,-0.0997,-0.0914,0,-0.0494,-0.0568,-0.0602,-0.0686,-0.0733,-0.0771,-0.0834,-0.0886,-0.0913,-0.0963,-0.0986,-0.1037,-0.1021,-0.104,-0.1041,-0.1022,-0.1002,-0.1014,-0.0927,-0.0924,-0.0838,-0.0883,-0.1001,-0.0914,-0.0914,-0.0915,-0.0915,0,-0.0535,-0.058,-0.0666,-0.0744,-0.0766,-0.0826,-0.0911,-0.0962,-0.1029,-0.1049,-0.1098,-0.111,-0.115,-0.1114,-0.1095,-0.1103,-0.1048,-0.1006,-0.1002,-0.0901,-0.0845,-0.0847,-0.0915,-0.0915,-0.0915,-0.0915,-0.0915,0,-0.0534,-0.062,-0.069,-0.0721,-0.0819,-0.087,-0.0922,-0.0991,-0.1015,-0.1107,-0.1122,-0.1178,-0.1191,-0.1169,-0.109,-0.1102,-0.1025,-0.1031,-0.0898,-0.0889,-0.095,-0.0944,-0.1003,-0.1003,-0.1003,-0.1004,-0.1004,0,-0.0556,-0.0611,-0.0699,-0.074,-0.0818,-0.0883,-0.0944,-0.101,-0.1067,-0.1075,-0.1163,-0.1144,-0.1203,-0.116,-0.1105,-0.099,-0.1038,-0.0907,-0.0874,-0.0981,-0.098,-0.0948,-0.0943,-0.1,-0.1001,-0.1002,-0.1002,0,-0.0562,-0.0615,-0.0695,-0.0795,-0.0826,-0.0886,-0.0948,-0.0976,-0.1042,-0.1063,-0.1095,-0.1128,-0.1074,-0.1078,-0.1013,-0.0979,-0.0895,-0.083,-0.0913,-0.0885,-0.0753,-0.0753,-0.0711,-0.0707,-0.0705,-0.0702,-0.07,0,-0.0578,-0.0625,-0.0723,-0.0757,-0.0808,-0.0877,-0.0914,-0.0978,-0.0974,-0.0992,-0.0982,-0.0973,-0.0977,-0.0843,-0.084,-0.0773,-0.0747,-0.0729,-0.0788,-0.0757,-0.0729,-0.0733,-0.0737,-0.0696,-0.0695,-0.0694,-0.0694,0,-0.0608,-0.0642,-0.0694,-0.0757,-0.0808,-0.0849,-0.0884,-0.0868,-0.0904,-0.0949,-0.0875,-0.0856,-0.0785,-0.0756,-0.072,-0.0653,-0.078,-0.07,-0.0707,-0.0762,-0.0739,-0.0714,-0.0721,-0.0684,-0.0685,-0.0686,-0.0687,0,-0.0616,-0.0643,-0.0695,-0.0749,-0.0797,-0.0815,-0.0835,-0.081,-0.0817,-0.0825,-0.0754,-0.0741,-0.0742,-0.0678,-0.0605,-0.0592,-0.0593,-0.0614,-0.0626,-0.0636,-0.0652,-0.0613,-0.0493,0,0,0,0,0,-0.0618,-0.0637,-0.068,-0.0726,-0.0764,-0.0797,-0.081,-0.0811,-0.0801,-0.0746,-0.0761,-0.0686,-0.0627,-0.0582,-0.0551,-0.0551,-0.0594,-0.0513,-0.0626,-0.063,-0.0641,-0.0667,0,0,0,0,0,0,-0.0614,-0.0652,-0.0669,-0.0695,-0.0714,-0.0755,-0.0766,-0.0767,-0.0715,-0.0706,-0.0662,-0.067,-0.0601,-0.065,-0.0548,-0.054,-0.0604,-0.0493,-0.0492,-0.0624,-0.0634,-0.0643,-0.0674,0,0,0,0,0]}]]